sat.trackr.live / text

‹ back to catalog

STARLINK-3915

NORAD 52581 · 2022-051AX

PAYLOAD ACTIVE UNKNOWN

§ Identity

Operator
Country
US
Launch date
2022-05-13
Launch site
AFWTR
Launch vehicle
Mass (kg)
RCS (m²)

Purposes: comms

External: N2YO · Heavens-Above · Gunter

§ Orbital elements

Epoch: 2026-09-19T21:15:48.500064Z

Period
93.83 min
Inclination
53.1605°
Eccentricity
0.0001227
Mean motion
15.34688080 rev/d
Perigee alt
461.0 km
Apogee alt
462.7 km
Semi-major
6,840.0 km
B*
-1.7052e-3
RAAN
320.3318°
Arg perigee
101.9430°
Mean anomaly
258.1710°
Rev number
24,099

§ Raw data

STARLINK-39151 52581U 22051AX  26262.88597801 -.00058076  00000+0 -17052-2 0  99992 52581  53.1605 320.3318 0001227 101.9430 258.1710 15.34688080240994

JSON: /api/v1/satellites/52581 · /tle

For live sub-satellite position, see the globe view (requires WebGL).

§ Visibility from observer

Set your observer location to see the next 7 days of passes ≥ 10°. The values pass through the URL so the page stays shareable.

No JS? Fill the form by hand. The geolocation button needs JavaScript.